Starlink 5863

operational
NORAD ID: 55922 Int'l Des: 2023-037 Owner: SPXS Country: US Constellation: starlink
LEOCIRCULAR

About Starlink 5863

Description loading...

Live Position

Loading 3D Globe...

Upcoming Passes

Altitude History

Altitude vs Time

uPlot chart will show altitude changes over time

Two-Line Element Set

1 55922U 23037J 25312.82639449 .00015052 00000-0 12665-2 0 9991
2 55922 70.0011 249.1659 0002678 266.0298 94.0554 14.98332970145380
Epoch: Nov 8, 2025 • Age: 57 hours

Current Status

Altitude 580.3 km
Velocity 7.57 km/s
Sub-Earth Point -27.11°S, 49.32°W
Launch Date Mar 17, 2023
Age 2.6 years
Type internet

Technical Details

Classification Payload
Mass 305.00 kg
Dry Mass 290.00 kg
Total Mass 305.00 kg
Length 0.20 m
Diameter 2.80 m
Span 9.00 m
Shape Box + pan
Manufacturer SPXS
Bus Type Starlink
Phase Status In Orbit
Owner/State SPXS/US

Large Constellations

Loading constellations...